Station LTRM4 - 9076033 - Little Rapids, MI Image indicating link to RSS feed of recent meteorological observations for station LTRM4


Conditions at LTRM4 as of
(9:00 pm EDT on 04/15/2024)
0100 GMT on 04/16/2024:
     

Click on the graph icon in the table below to see a time series plot of the last five days of that observation.

5-day plot - Wind Direction Wind Direction (WDIR):WNW ( 300 deg true )
5-day plot - Wind Speed Wind Speed (WSPD): 8.0 kts
5-day plot - Wind Gust Wind Gust (GST): 13.0 kts
5-day plot - Atmospheric Pressure Atmospheric Pressure (PRES):30.05 in
5-day plot - Pressure Tendency Pressure Tendency (PTDY):+0.05 in ( Rising )
5-day plot - Water Temperature Water Temperature (WTMP): 40.5 °F
5-day plot - Wind Speed at 10 Meters Wind Speed at 10 meters (WSPD10M): 7.8 kts
5-day plot - Wind Speed at 20 Meters Wind Speed at 20 meters (WSPD20M): 7.8 kts
5-day plot -  Wind Speed, Wind Gust and Atmospheric Pressure Combined plot of Wind Speed, Gust, and Air Pressure
NOS Water Level Observation Network Water Level
Previous observations
TIME
(EDT)
5-day plot - Wind Direction
WDIR
 
5-day plot - Wind Speed
WSPD
kts
5-day plot - Wind Gust
GST
kts
5-day plot - Wave Height
WVHT
ft
5-day plot - Dominant Wave Period
DPD
sec
5-day plot - Average Wave Period
APD
sec
5-day plot - Mean Wave Direction
MWD
 
5-day plot - Atmospheric Pressure
PRES
in
5-day plot - Pressure Tendency
PTDY
in
5-day plot - Air Temperature
ATMP
°F
5-day plot - Water Temperature
WTMP
°F
5-day plot - Dew Point
DEWP
°F
5-day plot - Salinity
SAL
psu
5-day plot - Visibility
VIS
nmi
5-day plot - Tide (above MLLW)
TIDE
ft
2024-04-15 08:54 pmWNW 9.9 13.0----30.05-- 40.5----
2024-04-15 08:48 pmWNW 11.1 14.0----30.04- 42.3 40.5 32.7---
2024-04-15 08:42 pmWNW 7.0 9.9----30.04- 42.6 40.5 32.4---
2024-04-15 08:36 pmWNW 6.0 8.9----30.04- 42.8 40.5 32.4---
2024-04-15 08:30 pm NW 5.1 8.0----30.04- 43.0 40.5 32.5---
2024-04-15 08:24 pm NW 7.0 9.9----30.03- 43.3 40.5 32.2---
2024-04-15 08:18 pmNNW 6.0 12.0----30.03-- 40.5----
2024-04-15 08:12 pm NW 9.9 15.0----30.03-- 40.5----
2024-04-15 08:06 pm NW 9.9 14.0----30.03-- 40.5----
2024-04-15 08:00 pm NW 11.1 15.0----30.02+0.05 43.7 40.5 32.9---
2024-04-15 07:54 pm NW 13.0 17.1----30.02- 43.9 40.5 32.5---
2024-04-15 07:48 pm NW 13.0 17.1----30.02- 43.9 40.5 32.4---
2024-04-15 07:42 pm NW 11.1 17.1----30.02- 44.4 40.5 32.5---
2024-04-15 07:36 pmWNW 13.0 19.0----30.02- 44.8 40.5 32.0---
2024-04-15 07:30 pm NW 14.0 22.0----30.02- 44.8 40.5 32.2---
2024-04-15 07:24 pm NW 12.0 15.9----30.02- 45.1 40.5 32.2---
2024-04-15 07:18 pm NW 9.9 14.0----30.02- 45.5 40.5 32.2---
2024-04-15 07:12 pmWNW 8.9 15.9----30.02- 45.7 40.5 32.0---
2024-04-15 07:06 pm NW 9.9 15.0----30.02- 45.7 40.5 32.0---
2024-04-15 07:00 pmWNW 12.0 17.1----30.02+0.07 45.7 40.5 31.6---
2024-04-15 06:54 pm NW 13.0 17.1----30.02- 45.7 40.5 31.5---
2024-04-15 06:48 pm NW 11.1 17.1----30.02- 45.9 40.5 31.8---
2024-04-15 06:42 pm NW 11.1 18.1----30.02- 45.9 40.5 30.9---
2024-04-15 06:36 pm NW 12.0 18.1----30.01- 46.0 40.5 30.4---
2024-04-15 06:30 pm NW 12.0 18.1----30.01-- 40.5----
2024-04-15 06:24 pm NW 14.0 19.0----30.01-- 40.5----
2024-04-15 06:18 pm NW 14.0 20.0----30.01- 46.8 40.5 29.8---
2024-04-15 06:12 pm NW 15.9 19.0----30.01- 46.8 40.5 29.7---
2024-04-15 06:06 pm NW 15.0 20.0----30.01- 47.3 40.5 30.6---
2024-04-15 06:00 pm NW 13.0 22.0----30.00+0.06 47.1 40.5 30.0---
2024-04-15 05:54 pm NW 15.9 24.1----30.00- 47.5 40.5 30.2---
2024-04-15 05:48 pm NW 14.0 20.0----29.99- 47.8 40.5 31.8---
2024-04-15 05:42 pm NW 15.9 22.0----29.99- 47.7 40.5 32.0---
2024-04-15 05:36 pm NW 11.1 22.0----29.99- 47.7 40.5 33.3---
2024-04-15 05:30 pm NW 15.9 22.9----29.99- 48.0 40.5 32.7---
2024-04-15 05:24 pm NW 17.1 24.1----29.98- 48.0 40.5 32.5---
2024-04-15 05:18 pm NW 18.1 22.9------ 48.2 40.5 32.2---
2024-04-15 05:12 pm NW 18.1 24.1------ 48.6 40.5 32.7---
2024-04-15 05:06 pm NW 18.1 24.1------ 48.9 40.5 32.7---
2024-04-15 05:00 pm NW 17.1 21.0----29.97+0.05 48.9 40.5 32.7---
2024-04-15 04:54 pm NW 18.1 22.9----29.97- 48.7 40.5 33.4---
2024-04-15 04:48 pm NW 17.1 24.1----29.97- 48.7 40.5 32.4---
2024-04-15 04:42 pm NW 18.1 24.1----29.96- 49.5 40.5 32.7---
2024-04-15 04:36 pm NW 18.1 22.0----29.96- 49.5 40.5 32.2---
2024-04-15 04:30 pm NW 15.0 22.9----29.96- 50.0 40.5 32.7---
2024-04-15 04:24 pm NW 14.0 22.9----29.95- 50.2 40.5 32.9---
2024-04-15 04:18 pm NW 14.0 22.9----29.95- 50.0 40.5 32.7---
2024-04-15 04:12 pm NW 17.1 22.0----29.95- 50.4 40.5 32.9---
2024-04-15 04:06 pm NW 15.9 20.0----29.95- 50.9 40.5 33.4---
2024-04-15 04:00 pm NW 13.0 21.0----29.95+0.05 50.7 40.5 34.2---
2024-04-15 03:54 pm NW 15.9 18.1----29.95- 51.1 40.5 33.6---
2024-04-15 03:48 pm NW 17.1 19.0----29.94- 50.9 40.5 33.8---
2024-04-15 03:42 pm NW 15.9 20.0----29.94- 52.3 40.5 33.8---
2024-04-15 03:36 pmWNW 15.9 21.0----29.94- 52.0 40.5 33.6---
2024-04-15 03:30 pm NW 14.0 19.0----29.94- 51.4 40.5 34.2---
2024-04-15 03:24 pm NW 14.0 18.1----29.94- 51.8 40.5 34.3---
2024-04-15 03:18 pm NW 13.0 20.0----29.94- 52.3 40.5 34.5---
2024-04-15 03:12 pm NW 14.0 20.0----29.94- 51.4 40.5 33.6---
2024-04-15 03:06 pm NW 13.0 18.1----29.94- 52.2 40.5 34.0---
2024-04-15 03:00 pm NW 13.0 19.0----29.94+0.05 52.3 40.5 34.3---
2024-04-15 02:54 pm NW 15.0 19.0----29.94- 52.5 40.5 34.0---
2024-04-15 02:48 pm NW 12.0 18.1----29.93- 52.7 40.5 34.5---
2024-04-15 02:42 pm NW 13.0 18.1----29.93- 51.6 40.5 33.6---
2024-04-15 02:36 pm NW 9.9 15.9----29.93- 51.1 40.5 34.3---
2024-04-15 02:30 pm NW 12.0 17.1----29.93- 51.4 40.5 33.8---
2024-04-15 02:24 pm NW 11.1 15.0----29.93- 51.8 40.5 34.7---
2024-04-15 02:18 pm NW 13.0 15.9----29.92- 52.3 40.5 34.3---
2024-04-15 02:12 pm NW 12.0 17.1----29.92- 52.2 40.5 34.2---
2024-04-15 02:06 pm NW 13.0 18.1----29.92- 51.8 40.5 33.6---
2024-04-15 02:00 pm NW 12.0 15.0----29.92+0.04 51.8 40.5 33.8---
2024-04-15 01:54 pm NW 13.0 18.1----29.92- 50.7 40.5 33.6---
2024-04-15 01:48 pm NW 15.0 19.0----29.92- 51.3 40.5 33.4---
2024-04-15 01:42 pm NW 15.0 20.0----29.91- 51.1 40.5 33.1---
2024-04-15 01:36 pm NW 14.0 17.1----29.91- 51.4 40.5 32.9---
2024-04-15 01:30 pm NW 11.1 15.0----29.91- 51.6 40.5 33.4---
2024-04-15 01:24 pm NW 13.0 17.1----29.91- 51.4 40.5 32.9---
2024-04-15 01:18 pmWNW 9.9 14.0----29.91- 52.9 40.5 33.6---
2024-04-15 01:12 pmWNW 9.9 15.9----29.91- 52.0 40.5 33.1---
2024-04-15 01:06 pm NW 11.1 14.0----29.90- 51.3 40.5 32.9---
2024-04-15 01:00 pm NW 12.0 14.0----29.90+0.02 51.3 40.5 33.1---
2024-04-15 12:54 pm NW 13.0 17.1----29.90- 51.4 40.5 33.4---
2024-04-15 12:48 pm NW 11.1 15.0----29.90- 50.9 40.5 33.1---
2024-04-15 12:42 pm NW 11.1 15.9----29.90- 52.0 40.5 33.3---
2024-04-15 12:36 pmWNW 11.1 14.0----29.90- 51.4 40.5 32.7---
2024-04-15 12:30 pm NW 11.1 14.0----29.90- 51.6 40.5 32.7---
2024-04-15 12:24 pm NW 11.1 15.9----29.90- 51.8 40.5 33.3---
2024-04-15 12:18 pmWNW 9.9 15.0----29.90- 52.3 40.5 33.3---
2024-04-15 12:12 pmWNW 11.1 14.0----29.90- 52.0 40.5 32.9---
2024-04-15 12:06 pm NW 12.0 15.9----29.90- 51.8 40.5 33.8---
2024-04-15 12:00 pm NW 9.9 14.0----29.89+0.00 51.6 40.5 32.7---
2024-04-15 11:54 am NW 11.1 14.0----29.89- 51.8 40.5 32.7---
2024-04-15 11:48 am NW 7.0 11.1----29.89- 52.5 40.5 34.3---
2024-04-15 11:42 amWNW 6.0 12.0----29.89- 51.8 40.5 34.5---
2024-04-15 11:36 amWNW 8.0 11.1----29.89- 51.6 40.5 34.2---
2024-04-15 11:30 amWNW 7.0 8.9----29.88- 51.3 40.5 34.7---
2024-04-15 11:24 am W 8.0 12.0----29.89- 50.7 40.3 35.1---
2024-04-15 11:18 am NW 6.0 8.0----29.89- 47.7 40.3 35.8---
2024-04-15 11:12 amNNW 4.1 6.0----29.89- 46.6 40.5 36.0---
2024-04-15 11:06 amNNE 1.9 4.1----29.89- 44.8 40.3 35.6---
2024-04-15 11:00 am NE 2.9 2.9----29.88+0.01 44.6 40.3 35.4---
2024-04-15 10:54 am NE 1.9 2.9----29.89- 44.1 40.3 35.8---
2024-04-15 10:48 am NE 2.9 4.1----29.88- 43.7 40.3 35.4---
2024-04-15 10:42 am NE 2.9 2.9----29.88- 43.5 40.5 35.6---
2024-04-15 10:36 am NE 2.9 2.9----29.88- 43.3 40.3 35.6---
2024-04-15 10:30 amNNE 2.9 4.1----29.88-- 40.3----
2024-04-15 10:24 am NE 2.9 4.1----29.88-- 40.3----
2024-04-15 10:18 amENE 2.9 4.1----29.88- 41.7 40.3 35.2---
2024-04-15 10:12 am NE 2.9 5.1----29.88- 42.3 40.3 35.2---
2024-04-15 10:06 amENE 1.9 2.9----29.88- 41.7 40.3 35.6---
2024-04-15 10:00 amENE 1.9 2.9----29.88+0.04 41.5 40.3 35.1---
2024-04-15 09:54 amNNE 1.9 2.9----29.88- 41.7 40.3 35.2---
2024-04-15 09:48 amENE 1.9 2.9----29.88- 41.0 40.3 34.9---
2024-04-15 09:42 am E 1.9 2.9----29.89- 40.6 40.3 35.4---
2024-04-15 09:36 amENE 2.9 4.1----29.89- 40.3 40.3 35.8---
2024-04-15 09:30 amENE 4.1 4.1----29.89- 39.9 40.3 35.4---
2024-04-15 09:24 amENE 2.9 2.9----29.89- 39.9 40.3 35.6---
2024-04-15 09:18 am E 1.9 2.9----29.89- 39.7 40.3 35.2---
2024-04-15 09:12 amESE 2.9 2.9----29.89- 39.0 40.3 34.5---
2024-04-15 09:06 am SE 1.9 4.1----29.89- 39.0 40.3 35.1---
2024-04-15 09:00 am SE 2.9 2.9----29.89+0.06 37.9 40.3 34.2---
2024-04-15 08:54 am SE 2.9 2.9----29.89- 38.1 40.3 34.3---
2024-04-15 08:48 am SE 2.9 2.9----29.89- 37.8 40.3 34.2---
2024-04-15 08:42 am SE 2.9 2.9----29.88- 37.9 40.3 34.0---
2024-04-15 08:36 am SE 1.0 1.9----29.88- 37.9 40.3 34.5---
2024-04-15 08:30 am E 1.9 1.9----29.88- 37.0 40.3 34.0---
2024-04-15 08:24 am E 1.9 2.9----29.88- 37.2 40.3 34.3---
2024-04-15 08:18 amESE 1.9 2.9----29.88- 36.7 40.3 34.0---
2024-04-15 08:12 amSSE 1.9 2.9----29.88- 36.3 40.3 34.0---
2024-04-15 08:06 am S 1.9 2.9----29.87- 35.2 40.3 33.3---
2024-04-15 08:00 amSSE 1.9 2.9----29.87+0.06 35.4 40.3 33.6---
2024-04-15 07:54 amSSE 1.9 2.9----29.87- 34.5 40.3 32.7---
2024-04-15 07:48 amSSE 1.9 1.9----29.87- 35.2 40.3 33.4---
2024-04-15 07:42 am SE 1.0 1.9----29.86- 35.1 40.3 33.4---
2024-04-15 07:36 am S 1.0 1.9----29.86- 33.6 40.3 32.4---
2024-04-15 07:30 am S 1.0 1.9----29.86- 33.1 40.3 32.0---
2024-04-15 07:24 am S 1.9 2.9----29.85- 32.9 40.3 32.0---
2024-04-15 07:18 am S 1.9 2.9----29.85- 32.9 40.3 31.8---
2024-04-15 07:12 am- 0.0 1.0----29.85- 34.0 40.3 32.7---
2024-04-15 07:06 amWSW 1.9 1.9----29.85- 34.0 40.3 33.1---
2024-04-15 07:00 am- 0.0 1.9----29.84+0.05 34.3 40.3 33.4---
2024-04-15 06:54 am SE 1.9 2.9----29.84- 33.8 40.3 32.7---
2024-04-15 06:48 am SE 1.9 2.9----29.84- 33.6 40.3 32.5---
2024-04-15 06:42 amSSE 1.9 2.9----29.84- 33.6 40.3 32.4---
2024-04-15 06:36 am S 1.0 1.0----29.84- 33.6 40.3 32.5---
2024-04-15 06:30 amSSW 1.0 1.0----29.83- 33.4 40.3 32.2---
2024-04-15 06:24 am- 0.0 1.9----29.83- 33.3 40.3 32.2---
2024-04-15 06:18 amSSW 1.0 1.9----29.83- 33.4 40.3 32.4---
2024-04-15 06:12 am S 1.9 1.9----29.83- 33.4 40.3 32.4---
2024-04-15 06:06 am S 1.9 2.9----29.83- 33.8 40.3 32.9---
2024-04-15 06:00 amSSE 1.9 4.1----29.82+0.04 34.3 40.3 33.8---
2024-04-15 05:54 amSSE 4.1 4.1----29.82- 34.5 40.3 33.6---
2024-04-15 05:48 amSSE 2.9 2.9----29.82- 34.3 40.3 33.4---
2024-04-15 05:42 amSSE 1.9 2.9----29.82- 34.5 40.3 33.3---
2024-04-15 05:36 am S 1.0 1.9----29.81- 34.3 40.3 32.9---
2024-04-15 05:30 am S 1.9 2.9----29.81- 33.6 40.3 32.0---
2024-04-15 05:24 amSSW 1.9 1.9----29.81- 34.2 40.3 32.4---
2024-04-15 05:18 am- 0.0 1.0----29.81- 34.7 40.3 33.1---
2024-04-15 05:12 am- 0.0 0.0----29.81- 34.9 40.3 33.1---
2024-04-15 05:06 am- 0.0 1.0----29.81- 35.1 40.3 34.0---
2024-04-15 05:00 amESE 1.0 1.9----29.81+0.02 35.2 40.3 34.0---
2024-04-15 04:54 amSSE 1.9 1.9----29.81- 34.7 40.3 33.3---
2024-04-15 04:48 am S 1.0 1.9----29.81- 34.9 40.5 33.1---
2024-04-15 04:42 am- 0.0 1.9----29.80- 34.9 40.3 32.9---
2024-04-15 04:36 amSSW 1.0 2.9----29.80- 35.1 40.5 32.7---
2024-04-15 04:30 amWSW 1.9 6.0----29.80- 36.5 40.5 34.2---
2024-04-15 04:24 am W 4.1 6.0----29.80- 36.9 40.5 34.3---
2024-04-15 04:18 am W 4.1 6.0----29.80- 37.0 40.5 34.3---
2024-04-15 04:12 am W 5.1 7.0----29.80- 37.2 40.5 34.3---
2024-04-15 04:06 am W 5.1 7.0----29.80- 37.0 40.5 34.2---
2024-04-15 04:00 am W 6.0 8.0----29.80+0.01 37.0 40.5 34.2---
2024-04-15 03:54 am W 5.1 7.0----29.80- 36.9 40.5 34.2---
2024-04-15 03:48 am W 5.1 7.0----29.80- 36.5 40.5 34.0---
2024-04-15 03:42 am W 2.9 6.0----29.79- 35.6 40.5 33.6---
2024-04-15 03:36 amWSW 1.9 2.9----29.80- 34.5 40.3 33.1---
2024-04-15 03:30 amSSW 1.9 2.9----29.80- 34.2 40.5 32.7---
2024-04-15 03:24 am S 1.9 2.9----29.80- 34.0 40.5 32.4---
2024-04-15 03:18 am S 1.9 1.9----29.79- 34.2 40.5 32.5---
2024-04-15 03:12 am S 1.9 1.9----29.79- 34.7 40.3 32.7---
2024-04-15 03:06 am S 1.0 1.9----29.79- 35.6 40.3 33.4---
2024-04-15 03:00 am SE 1.0 1.9----29.79+0.01 35.8 40.3 33.3---
2024-04-15 02:54 amWSW 1.9 4.1----29.79- 36.1 40.3 33.6---
2024-04-15 02:48 am W 1.9 4.1----29.79- 36.3 40.5 33.8---
2024-04-15 02:42 am W 2.9 5.1----29.79- 36.5 40.3 34.3---
2024-04-15 02:36 am W 4.1 5.1----29.79- 36.3 40.3 34.2---
2024-04-15 02:30 am W 2.9 4.1----29.79- 35.6 40.3 33.6---
2024-04-15 02:24 amSSW 1.9 2.9----29.79- 34.9 40.3 33.3---
2024-04-15 02:18 am S 1.9 4.1----29.79- 35.1 40.3 33.3---
2024-04-15 02:12 am S 1.9 2.9----29.79- 35.2 40.3 33.1---
2024-04-15 02:06 am S 2.9 4.1----29.78- 35.4 40.3 32.7---
2024-04-15 02:00 amWSW 1.9 4.1----29.78+0.00 36.9 40.3 33.8---
2024-04-15 01:54 am W 1.9 4.1----29.78- 37.2 40.3 34.2---
2024-04-15 01:48 amWNW 2.9 5.1----29.78- 37.4 40.3 34.0---
2024-04-15 01:42 am W 1.0 4.1----29.78- 37.2 40.5 34.0---
2024-04-15 01:36 am W 1.9 4.1----29.78- 37.4 40.3 34.3---
2024-04-15 01:30 am W 2.9 5.1----29.78- 37.4 40.3 34.3---
2024-04-15 01:24 am W 4.1 5.1----29.79- 37.4 40.5 34.3---
2024-04-15 01:18 am W 4.1 6.0----29.79- 37.4 40.5 34.3---
2024-04-15 01:12 am W 4.1 6.0----29.78- 37.4 40.3 34.3---
2024-04-15 01:06 am W 2.9 5.1----29.79- 37.2 40.3 34.2---
2024-04-15 01:00 am W 2.9 6.0----29.78+0.00 37.2 40.3 34.5---
2024-04-15 12:54 amWNW 5.1 7.0----29.78- 37.4 40.3 34.3---
2024-04-15 12:48 am W 5.1 7.0----29.79- 37.4 40.3 34.3---
2024-04-15 12:42 amWNW 4.1 7.0----29.78- 37.2 40.3 34.2---
2024-04-15 12:36 am W 5.1 6.0----29.79- 37.2 40.3 34.0---
2024-04-15 12:30 amWNW 5.1 7.0----29.78- 37.4 40.5 34.2---
2024-04-15 12:24 amWNW 2.9 6.0----29.78- 37.2 40.3 33.8---
2024-04-15 12:18 amWNW 4.1 5.1----29.78- 37.4 40.3 34.0---
2024-04-15 12:12 amWNW 4.1 5.1----29.78- 37.4 40.3 33.8---
2024-04-15 12:06 am W 2.9 4.1----29.78- 37.4 40.5 33.8---
2024-04-15 12:00 am W 2.9 5.1----29.78+0.00 37.6 40.5 34.0---
2024-04-14 11:54 pmWNW 2.9 5.1----29.78- 37.6 40.5 33.8---
2024-04-14 11:48 pmWNW 4.1 5.1----29.78- 37.8 40.5 33.8---
2024-04-14 11:42 pmWNW 4.1 6.0----29.78- 37.8 40.5 33.8---
2024-04-14 11:36 pmWNW 4.1 6.0----29.78- 37.9 40.5 34.0---
2024-04-14 11:30 pm W 5.1 8.0----29.78- 37.9 40.5 33.6---
2024-04-14 11:24 pmWNW 5.1 6.0----29.78- 38.1 40.5 33.6---
2024-04-14 11:18 pmWNW 4.1 6.0----29.78- 38.1 40.5 32.0---
2024-04-14 11:12 pmWNW 4.1 7.0----29.78- 38.1 40.5 33.8---
2024-04-14 11:06 pmWNW 5.1 8.0----29.79- 37.9 40.5 33.6---
2024-04-14 11:00 pmWNW 7.0 9.9----29.79+0.04 37.9 40.5 33.6---
2024-04-14 10:54 pmWNW 6.0 8.0----29.79- 38.1 40.5 33.6---
2024-04-14 10:48 pmWNW 6.0 8.9----29.79- 38.1 40.5 33.6---
2024-04-14 10:42 pmWNW 7.0 11.1----29.79- 38.3 40.5 33.6---
2024-04-14 10:36 pmWNW 7.0 11.1----29.79- 38.5 40.5 33.6---
2024-04-14 10:30 pmWNW 7.0 9.9----29.79- 38.7 40.5 33.4---
2024-04-14 10:24 pmWNW 7.0 11.1----29.79- 38.7 40.5 33.4---
2024-04-14 10:18 pmWNW 7.0 9.9----29.79- 38.8 40.5 33.4---
2024-04-14 10:12 pmWNW 6.0 8.0----29.79- 38.7 40.5 33.1---
2024-04-14 10:06 pmWNW 6.0 11.1----29.78- 38.8 40.5 33.6---
2024-04-14 10:00 pm NW 8.0 11.1----29.78+0.04 39.2 40.5 33.8---
2024-04-14 09:54 pm NW 9.9 13.0----29.78- 39.2 40.5 33.4---
2024-04-14 09:48 pm NW 11.1 12.0----29.78- 39.2 40.5 33.3---
2024-04-14 09:42 pmWNW 8.0 11.1----29.78- 39.2 40.5 33.4---
2024-04-14 09:36 pm NW 8.9 12.0----29.78- 39.2 40.5 33.4---
2024-04-14 09:30 pm NW 9.9 14.0----29.78- 39.4 40.5 33.3---
2024-04-14 09:24 pm NW 11.1 14.0----29.78- 39.6 40.5 33.4---
2024-04-14 09:18 pm NW 11.1 15.9----29.78- 39.6 40.5 33.4---
2024-04-14 09:12 pm NW 13.0 15.9----29.78- 39.7 40.5 33.1---
2024-04-14 09:06 pm NW 14.0 17.1----29.78- 39.9 40.5 33.1---
2024-04-14 09:00 pm NW 14.0 17.1----29.77+0.05 40.1 40.3 32.9---
2024-04-14 08:54 pm NW 12.0 17.1----29.77- 40.1 40.3 32.7---